カタログに戻る

ZQ-2E R/B

運用中PO
NORAD 69095·ROCKET BODY·🇨🇳 China

打ち上げ May 13, 2026 から Jiuquan Satellite Launch Center

Loading…

次のパス (今後24時間)

TLE

最新Source: Space-Track

元期: Sep 14, 2026, 20:28 UTC

1 69095U 26105A   26257.85335907  .00231904 -73951-6  36971-3 0  9995
2 69095  88.9646 181.7219 0311993 310.4158  47.0258 15.52432327 18873

AllMySatでZQ-2E R/Bをリアルタイム追跡

Download on the App Store